Content
SEND FEEDBACK

Daily
Averages
Monthly
Summary
United States of America

QUEENS - FLUSHING, NEW YORK


Home > North America > United States > New York
Elevation: 5 feet     Latitude: 40 46N     Longitude: 073 54W

WEATHER
 
SELECT A DAY
Number of Records: 193,881;   Date Range: 1/1/95 - 10/19/14
 
SHARE

PRINT THIS DATA

[ ← Previous Day ]
WEATHER ALMANAC - FEBRUARY 13, 2013
[ Next Day → ]
[ °C ]   °F
Weather ElementAverageHighLow
Temperature38 °F43 °F (1:51 pm)34 °F (6:51 am)
Dewpoint25.2 °F30.9 °F (10:51 pm)19.9 °F (8:51 am)
Humidity61.1 %89 % (11:51 pm)45 % (1:51 pm)
Barometer29.80 in29.95 in (1:51 am)29.70 in (5:51 pm)
Wind Speed6.2 mph11.5 mph (3:51 pm)
Weather ElementAverage
Visibility9.7 mi
Wind DirectionSSE (156.9 °)

Weather ElementTotal
Precipitation0.01 in
Heating Degree Days26.5 (Base 65)
Averaged from 26 records on February 13, 2013
WEATHER CONDITIONS BREAKOUT
WIND DIRECTION BREAKOUT
WEATHER BY HOUR - FEBRUARY 13, 2013
[ °C ]   °F
Local TimeTemperatureDewpointHumidityBarometerVisibilityWind DirectionWind SpeedGust SpeedPrecipitationEventsConditions
1:51 AM37.0 °F23.0 °F57 %29.95 in10.0 miWNW (290°)6.9 mphMostly Cloudy
2:51 AM37.0 °F21.9 °F54 %29.94 in10.0 miNW (310°)9.2 mphScattered Clouds
3:51 AM36.0 °F21.9 °F57 %29.93 in10.0 miNW (310°)9.2 mphPartly Cloudy
4:51 AM35.1 °F23.0 °F61 %29.90 in10.0 miNW (320°)8.1 mphPartly Cloudy
5:51 AM35.1 °F24.1 °F64 %29.92 in10.0 miCalmPartly Cloudy
6:51 AM34.0 °F23.0 °F64 %29.91 in10.0 miCalmPartly Cloudy
7:51 AM37.0 °F23.0 °F57 %29.91 in10.0 miCalmPartly Cloudy
8:51 AM37.9 °F19.9 °F48 %29.89 in10.0 miNorth (360°)5.8 mphPartly Cloudy
9:51 AM37.9 °F19.9 °F48 %29.88 in10.0 miNNW (330°)5.8 mphPartly Cloudy
10:51 AM39.0 °F19.9 °F46 %29.89 in10.0 miCalmScattered Clouds
11:51 AM41.0 °F24.1 °F51 %29.87 in10.0 miVariable5.8 mphMostly Cloudy
12:51 PM41.0 °F23.0 °F49 %29.83 in10.0 miCalmMostly Cloudy
1:51 PM43.0 °F23.0 °F45 %29.77 in10.0 miEast (80°)4.6 mphScattered Clouds
2:51 PM43.0 °F24.1 °F47 %29.77 in10.0 miNE (50°)5.8 mphMostly Cloudy
3:51 PM42.1 °F26.1 °F53 %29.75 in10.0 miSSE (160°)11.5 mphMostly Cloudy
4:51 PM39.9 °F25.0 °F55 %29.73 in10.0 miSouth (170°)4.6 mphMostly Cloudy
5:51 PM39.9 °F25.0 °F55 %29.70 in10.0 miEast (80°)5.8 mphMostly Cloudy
6:51 PM39.9 °F26.1 °F58 %29.70 in10.0 miNE (40°)6.9 mphOvercast
7:51 PM39.0 °F30.0 °F70 %29.70 in10.0 miNE (40°)8.1 mph0.00 inRainLight Rain
8:51 PM37.0 °F30.0 °F76 %29.71 in9.0 miNE (50°)6.9 mph0.00 inSnowLight Snow
9:51 PM37.0 °F28.0 °F70 %29.71 in10.0 miNE (50°)4.6 mph0.00 inSnowLight Snow
10:32 PM37.4 °F28.4 °F70 %29.70 in10.0 miNorth (350°)10.4 mph0.00 inSnowLight Snow
10:48 PM35.6 °F30.2 °F81 %29.70 in10.0 miNorth (360°)8.1 mph0.00 inRainLight Rain
10:51 PM36.0 °F30.9 °F82 %29.70 in10.0 miNorth (360°)10.4 mph0.00 inRainLight Rain
11:24 PM35.6 °F30.2 °F81 %29.71 in6.0 miNorth (360°)10.4 mph0.00 inSnowLight Snow
11:51 PM34.0 °F30.9 °F89 %29.71 in6.0 miNorth (10°)11.5 mph0.01 inSnowLight Snow
Hourly data recorded from KLGA, located miles away from Queens - Flushing, New York







STORIES FROM OUR PARTNERS